CYGFM02

Last updated on Wed Sep 23 2026 00:03:10 GMT+0000 (Coordinated Universal Time)

1 41886U 16078C 26265.43508346 .00043021 00000+0 31406-3 0 9999 2 41886 34.9390 287.7345 0003703 89.0801 271.0352 15.72124953544442
UTC large
Height (km)
Speed (km/s)
/
Latitude / Longitude
Inclination (degrees)
Orbital Period (minutes)
Azimuth
Elevation
Range (km)
Doppler Factor

Next 0 passes for location: London (51.5072 / 0.1276)

No passes found over London.
CYGFM02